Overview Statistics Trail Chart Weather Telemetry Raw packets
 

This is the latest recevied weather packets stored in our database for station/object 4S6DRJ-13. If no packets are shown the sender has not sent any weather packets the latest 10 day(s).

<< 311 312 313 314 315 316 317 >>
Time Temp. Humidity Pressure Rain* Wind** Luminosity Snow
1788006763 28.89° C 79% 1008.5 hPa 0 mm 0.89 m/s, 318° 13 W/m² -
1788006701 28.89° C 79% 1008.6 hPa 0 mm 1.34 m/s, 295° 15 W/m² -
1788006641 28.89° C 79% 1008.4 hPa 0 mm 2.24 m/s, 291° 17 W/m² -
1788006580 28.89° C 79% 1008.4 hPa 0 mm 0.89 m/s, 325° 19 W/m² -
1788006519 28.89° C 79% 1008.4 hPa 0 mm 1.34 m/s, 104° 21 W/m² -
1788006458 28.89° C 79% 1008.4 hPa 0 mm 1.79 m/s, 355° 22 W/m² -
1788006397 28.89° C 79% 1008.4 hPa 0 mm 1.79 m/s, 260° 24 W/m² -
1788006335 28.89° C 79% 1008.2 hPa 0 mm 1.34 m/s, 349° 26 W/m² -
1788006275 28.89° C 79% 1008.4 hPa 0 mm 1.79 m/s, 297° 27 W/m² -
1788006214 28.89° C 79% 1008.5 hPa 0 mm 0.89 m/s, 304° 29 W/m² -
1788006153 28.89° C 79% 1008.2 hPa 0 mm 1.34 m/s, 312° 32 W/m² -
1788006092 28.89° C 79% 1008.4 hPa 0 mm 3.13 m/s, 127° 34 W/m² -
1788006031 28.89° C 79% 1008.3 hPa 0 mm 1.34 m/s, 223° 36 W/m² -
1788005970 28.89° C 79% 1008.4 hPa 0 mm 0.89 m/s, 225° 36 W/m² -
1788005909 28.89° C 79% 1008.5 hPa 0 mm 0.89 m/s, 67° 39 W/m² -
1788005849 28.89° C 79% 1008.5 hPa 0 mm 0.45 m/s, 202° 43 W/m² -
1788005787 28.89° C 79% 1008.4 hPa 0 mm 2.68 m/s, 302° 47 W/m² -
1788005726 28.89° C 79% 1008.4 hPa 0 mm 2.24 m/s, 288° 49 W/m² -
1788005665 28.89° C 79% 1008.5 hPa 0 mm 0.45 m/s, 253° 51 W/m² -
1788005605 28.89° C 79% 1008.4 hPa 0 mm 0.89 m/s, 283° 51 W/m² -
1788005543 28.89° C 79% 1008.6 hPa 0 mm 0.89 m/s, 259° 54 W/m² -
1788005483 28.89° C 79% 1008.3 hPa 0 mm 0.89 m/s, 131° 57 W/m² -
1788005421 28.89° C 79% 1008.4 hPa 0 mm 1.34 m/s, 261° 59 W/m² -
1788005360 28.89° C 79% 1008.4 hPa 0 mm 0.45 m/s, 244° 61 W/m² -
1788005299 28.89° C 79% 1008.5 hPa 0 mm 0.89 m/s, 178° 63 W/m² -

* Rain latest hour (hover to see other rain measurements)
** Current wind speed in m/s (hover to see current wind gust speed)